1506060000.45,60229,13.44,73554.3,-0.29,-1.13,-1.13,0,*64
1506060001.7,60230,13.44,73552.0,-0.29,-1.13,-1.05,0,*6B
1506060002.92,60231,13.44,73554.3,-0.29,-1.13,-1.17,0,*69
1506060004.11,60232,13.44,73552.0,-0.29,-1.17,-1.25,0,*6F
1506060005.3,60233,13.44,73550.3,-0.29,-1.25,-1.25,0,*6F
1506060006.49,60234,13.44,73552.8,-0.29,-1.29,-1.29,0,*68
1506060007.69,60235,13.44,73554.3,-0.29,-1.29,-1.29,0,*69
1506060008.93,60236,13.44,73552.5,-0.29,-1.35,-1.35,0,*6A
1506060010.15,60237,13.44,73550.3,-0.29,-1.35,-1.29,0,*66
1506060011.42,60238,13.44,73552.3,-0.31,-1.39,-1.39,0,*6D
1506060012.67,60239,13.44,73554.0,-0.33,-1.43,-1.47,0,*6A
1506060013.94,60240,13.44,73552.8,-0.31,-1.43,-1.43,0,*62
1506060015.18,60241,13.44,73550.3,-0.31,-1.43,-1.51,0,*60
1506060016.42,60242,13.44,73548.0,-0.33,-1.47,-1.47,0,*62
1506060017.67,60243,13.44,73548.8,-0.33,-1.43,-1.43,0,*63
1506060018.92,60244,13.44,73552.3,-0.31,-1.33,-1.43,0,*61
1506060020.13,60245,13.44,73554.3,-0.31,-1.33,-1.33,0,*67
1506060021.4,60246,13.44,73554.3,-0.31,-1.39,-1.43,0,*69
1506060022.65,60247,13.44,73554.0,-0.33,-1.43,-1.43,0,*67
1506060023.9,60248,13.44,73554.5,-0.33,-1.47,-1.47,0,*68
1506060025.14,60249,13.44,73554.5,-0.33,-1.47,-1.47,0,*69
1506060026.39,60250,13.44,73552.0,-0.33,-1.47,-1.47,0,*61
1506060027.64,60251,13.44,73554.5,-0.33,-1.43,-1.47,0,*64
1506060028.88,60252,13.44,73550.5,-0.33,-1.43,-1.35,0,*62
1506060030.13,60253,13.44,73554.0,-0.33,-1.35,-1.35,0,*62
1506060031.37,60254,13.44,73550.3,-0.33,-1.35,-1.43,0,*64
1506060032.64,60255,13.44,73548.3,-0.35,-1.43,-1.35,0,*63
1506060033.88,60256,13.44,73554.0,-0.33,-1.35,-1.43,0,*66
1506060035.16,60257,13.44,73548.5,-0.31,-1.39,-1.39,0,*64
1506060036.4,60258,13.44,73544.8,-0.33,-1.43,-1.43,0,*69
1506060037.65,60259,13.44,73550.5,-0.33,-1.43,-1.43,0,*68
1506060038.87,60260,13.44,73548.5,-0.33,-1.33,-1.43,0,*65
1506060040.14,60261,13.44,73550.5,-0.35,-1.35,-1.35,0,*65
1506060041.35,60262,13.44,73550.3,-0.33,-1.35,-1.33,0,*66
1506060042.62,60263,13.44,73550.3,-0.35,-1.35,-1.35,0,*67
1506060043.89,60264,13.44,73550.3,-0.35,-1.35,-1.35,0,*60
1506060045.1,60265,13.44,73550.5,-0.35,-1.33,-1.25,0,*66
1506060046.32,60266,13.44,73550.3,-0.35,-1.33,-1.33,0,*62
1506060047.53,60267,13.44,73550.0,-0.35,-1.21,-1.25,0,*67
1506060048.75,60268,13.44,73550.3,-0.35,-1.21,-1.25,0,*68
1506060049.97,60269,13.44,73548.8,-0.35,-1.25,-1.21,0,*69
1506060051.19,60270,13.44,73550.5,-0.35,-1.21,-1.21,0,*65
1506060052.45,60271,13.44,73548.0,-0.35,-1.13,-1.13,0,*64
1506060053.72,60272,13.44,73550.3,-0.35,-1.13,-1.13,0,*67
1506060054.95,60273,13.44,73550.8,-0.33,-1.13,-1.13,0,*60
1506060056.19,60274,13.44,73550.5,-0.33,-1.13,-1.13,0,*67
1506060057.43,60275,13.44,73548.8,-0.33,-1.13,-1.13,0,*66
1506060058.65,60276,13.44,73548.0,-0.33,-1.13,-1.21,0,*64
1506060059.91,60277,13.44,73548.5,-0.31,-1.09,-1.13,0,*6D
1506060061.15,60278,13.44,73548.5,-0.33,-1.13,-1.13,0,*6B
1506060062.41,60279,13.44,73548.3,-0.31,-1.09,-1.09,0,*68
1506060063.68,60280,13.44,73552.5,-0.31,-1.05,-1.09,0,*62
1506060064.94,60281,13.44,73552.8,-0.31,-1.05,-1.13,0,*68
1506060066.21,60282,13.44,73552.3,-0.31,-1.05,-1.09,0,*60
1506060067.48,60283,13.44,73548.5,-0.31,-1.05,-1.09,0,*61
1506060068.74,60284,13.44,73550.3,-0.31,-1.05,-1.09,0,*66
1506060070.01,60285,13.44,73548.3,-0.31,-1.05,-1.09,0,*67
1506060071.28,60286,13.44,73550.5,-0.31,-1.05,-1.05,0,*68
1506060072.52,60287,13.44,73548.5,-0.33,-1.09,-1.13,0,*60
1506060073.79,60288,13.44,73552.3,-0.31,-1.05,-1.09,0,*6A
1506060075.05,60289,13.44,73552.8,-0.31,-1.05,-1.09,0,*6B
1506060076.31,60290,13.44,73548.3,-0.31,-1.09,-1.09,0,*6F
1506060077.57,60291,13.44,73550.3,-0.31,-1.09,-1.09,0,*6E
1506060078.82,60292,13.44,73552.0,-0.29,-1.05,-1.01,0,*60
1506060080.08,60293,13.44,73550.8,-0.31,-1.09,-1.05,0,*60
1506060081.32,60294,13.44,73550.8,-0.29,-1.01,-0.97,0,*5C
1506060082.56,60295,13.44,73554.5,-0.29,-1.01,-1.01,0,*63
1506060083.8,60296,13.44,73548.8,-0.29,-1.01,-1.01,0,*60
1506060085.04,60297,13.44,73548.8,-0.29,-1.01,-1.01,0,*61
1506060086.28,60298,13.44,73544.5,-0.29,-1.01,-1.01,0,*6E
1506060087.53,60299,13.44,73548.3,-0.29,-1.01,-1.05,0,*6B
1506060088.77,60300,13.44,73548.5,-0.29,-1.01,-1.05,0,*6A
1506060090.02,60301,13.44,73552.8,-0.29,-1.05,-1.05,0,*6F
1506060091.27,60302,13.44,73552.0,-0.29,-1.05,-1.05,0,*6C
1506060092.52,60303,13.44,73550.0,-0.29,-1.05,-1.05,0,*6D
1506060093.76,60304,13.44,73548.8,-0.29,-1.01,-1.05,0,*6E
1506060095.01,60305,13.44,73546.8,-0.29,-1.01,-1.05,0,*6F
1506060096.27,60306,13.44,73550.5,-0.27,-1.01,-1.05,0,*62
1506060097.54,60307,13.44,73548.0,-0.27,-1.01,-1.05,0,*63
1506060098.8,60308,13.44,73548.5,-0.27,-1.01,-1.05,0,*6C
1506060100.05,60309,13.44,73550.0,-0.29,-1.01,-1.05,0,*63
1506060101.31,60310,13.44,73550.3,-0.27,-1.01,-1.01,0,*61
1506060102.56,60311,13.44,73550.5,-0.27,-1.01,-0.97,0,*5E
1506060103.83,60312,13.44,73550.3,-0.27,-1.01,-1.01,0,*63
1506060105.09,60313,13.44,73548.8,-0.27,-1.01,-1.01,0,*62
1506060106.35,60314,13.44,73550.3,-0.27,-1.01,-1.01,0,*65
1506060107.61,60315,13.44,73550.0,-0.27,-1.01,-1.01,0,*64
1506060108.87,60316,13.44,73552.8,-0.27,-1.01,-1.01,0,*67
1506060110.1,60317,13.44,73550.3,-0.25,-0.97,-0.97,0,*64
1506060111.34,60318,13.44,73552.0,-0.25,-0.97,-0.97,0,*6B
1506060112.57,60319,13.44,73550.3,-0.25,-1.01,-0.97,0,*54
1506060113.81,60320,13.44,73552.8,-0.25,-1.01,-1.01,0,*60
1506060115.05,60321,13.44,73550.8,-0.25,-1.01,-1.01,0,*61
1506060116.29,60322,13.44,73550.0,-0.25,-1.01,-1.01,0,*62
1506060117.55,60323,13.44,73552.8,-0.27,-1.13,-1.13,0,*61
1506060118.76,60324,13.44,73554.8,-0.27,-1.25,-1.17,0,*67
1506060120.0,60325,13.44,73552.0,-0.25,-1.13,-1.13,0,*65
1506060121.2,60326,13.44,73552.0,-0.25,-1.21,-1.21,0,*66
1506060122.4,60327,13.44,73552.8,-0.25,-1.21,-1.21,0,*67
1506060123.62,60328,13.44,73552.5,-0.25,-1.13,-1.21,0,*69
1506060124.83,60329,13.44,73556.0,-0.27,-1.25,-1.25,0,*6B
1506060126.04,60330,13.44,73550.0,-0.27,-1.25,-1.25,0,*63
1506060127.24,60331,13.44,73550.5,-0.29,-1.29,-1.29,0,*6C
1506060128.45,60332,13.44,73552.0,-0.27,-1.29,-1.29,0,*61
1506060129.66,60333,13.44,73554.5,-0.27,-1.25,-1.29,0,*6C
1506060130.86,60334,13.44,73552.8,-0.29,-1.29,-1.29,0,*69
1506060132.07,60335,13.44,73552.0,-0.27,-1.29,-1.25,0,*6A
1506060133.29,60336,13.44,73554.0,-0.27,-1.29,-1.29,0,*65
1506060134.5,60337,13.44,73550.5,-0.29,-1.35,-1.29,0,*67
1506060135.7,60338,13.44,73554.8,-0.29,-1.29,-1.29,0,*65
1506060136.94,60339,13.44,73550.5,-0.29,-1.35,-1.35,0,*64
1506060138.2,60340,13.44,73554.0,-0.27,-1.35,-1.39,0,*68
1506060139.43,60341,13.44,73548.5,-0.29,-1.29,-1.35,0,*66
1506060140.66,60342,13.44,73550.8,-0.27,-1.35,-1.29,0,*6B
1506060141.91,60343,13.44,73548.5,-0.29,-1.35,-1.39,0,*65
1506060143.16,60344,13.44,73548.8,-0.29,-1.39,-1.35,0,*62
1506060144.41,60345,13.44,73550.3,-0.29,-1.39,-1.47,0,*66
1506060145.66,60346,13.44,73552.0,-0.29,-1.39,-1.47,0,*65
1506060146.91,60347,13.44,73550.3,-0.29,-1.39,-1.47,0,*64
1506060148.18,60348,13.44,73556.0,-0.27,-1.39,-1.39,0,*6C
1506060149.42,60349,13.44,73552.5,-0.29,-1.39,-1.47,0,*6A
1506060150.67,60350,13.44,73550.8,-0.29,-1.39,-1.39,0,*6B
1506060151.92,60351,13.44,73550.0,-0.29,-1.47,-1.39,0,*63
1506060153.17,60352,13.44,73554.0,-0.29,-1.39,-1.39,0,*69
1506060154.42,60353,13.44,73550.5,-0.29,-1.47,-1.39,0,*61
1506060155.67,60354,13.44,73554.3,-0.29,-1.39,-1.47,0,*66
1506060156.91,60355,13.44,73552.8,-0.29,-1.47,-1.39,0,*67
1506060158.15,60356,13.44,73550.3,-0.31,-1.51,-1.43,0,*67
1506060159.34,60357,13.44,73554.8,-0.33,-1.55,-1.51,0,*63
1506060160.56,60358,13.44,73548.0,-0.33,-1.47,-1.55,0,*6B
1506060161.83,60359,13.44,73552.3,-0.31,-1.43,-1.43,0,*6B
1506060163.05,60360,13.44,73550.3,-0.33,-1.47,-1.55,0,*60
1506060164.29,60361,13.44,73550.3,-0.31,-1.43,-1.51,0,*63
1506060165.5,60362,13.44,73550.5,-0.31,-1.51,-1.51,0,*63
1506060166.71,60363,13.44,73548.0,-0.31,-1.51,-1.51,0,*62
1506060167.93,60364,13.44,73548.0,-0.33,-1.51,-1.43,0,*64
1506060169.17,60365,13.44,73550.8,-0.31,-1.43,-1.51,0,*67
1506060170.39,60366,13.44,73552.3,-0.33,-1.47,-1.55,0,*66
1506060171.6,60367,13.44,73548.8,-0.31,-1.51,-1.51,0,*66
1506060172.84,60368,13.44,73548.8,-0.31,-1.43,-1.51,0,*6A
1506060174.05,60369,13.44,73550.0,-0.31,-1.63,-1.55,0,*6D
1506060175.24,60370,13.44,73550.8,-0.33,-1.59,-1.59,0,*62
1506060176.43,60371,13.44,73550.8,-0.33,-1.59,-1.67,0,*6E
1506060177.64,60372,13.44,73548.5,-0.31,-1.55,-1.55,0,*62
1506060178.84,60373,13.44,73548.5,-0.33,-1.67,-1.67,0,*61
1506060180.03,60374,13.44,73550.0,-0.33,-1.59,-1.67,0,*6B
1506060181.22,60375,13.44,73548.3,-0.33,-1.67,-1.67,0,*67
1506060182.42,60376,13.44,73550.3,-0.33,-1.59,-1.67,0,*69
1506060183.61,60377,13.44,73550.0,-0.33,-1.67,-1.67,0,*65
1506060184.8,60378,13.44,73550.5,-0.33,-1.67,-1.59,0,*67
1506060186.01,60379,13.44,73554.3,-0.35,-1.59,-1.59,0,*6D
1506060187.22,60380,13.44,73550.3,-0.35,-1.55,-1.59,0,*67
1506060188.43,60381,13.44,73550.0,-0.33,-1.59,-1.47,0,*63
1506060189.64,60382,13.44,73550.8,-0.35,-1.59,-1.59,0,*69
1506060190.85,60383,13.44,73550.0,-0.35,-1.55,-1.55,0,*68
1506060192.04,60384,13.44,73548.3,-0.37,-1.59,-1.63,0,*64
1506060193.25,60385,13.44,73550.0,-0.35,-1.59,-1.59,0,*6E
1506060194.46,60386,13.44,73552.8,-0.35,-1.67,-1.67,0,*6D
1506060195.67,60387,13.44,73550.8,-0.35,-1.59,-1.59,0,*6C
1506060196.85,60388,13.44,73550.0,-0.37,-1.59,-1.59,0,*61
1506060198.04,60389,13.44,73550.3,-0.37,-1.59,-1.63,0,*69
1506060199.25,60390,13.44,73548.0,-0.35,-1.59,-1.59,0,*6A
1506060200.43,60391,13.44,73552.8,-0.37,-1.63,-1.63,0,*69
1506060201.63,60392,13.44,73550.0,-0.37,-1.63,-1.71,0,*69
1506060202.82,60393,13.44,73548.3,-0.37,-1.63,-1.63,0,*6B
1506060204.01,60394,13.5,73554.8,-0.37,-1.71,-1.63,0,*6F
1506060205.21,60395,13.44,73552.8,-0.37,-1.71,-1.71,0,*6D
1506060206.42,60396,13.44,73548.3,-0.35,-1.59,-1.67,0,*61
1506060207.62,60397,13.44,73552.3,-0.37,-1.75,-1.71,0,*6B
1506060208.81,60398,13.44,73548.3,-0.37,-1.71,-1.75,0,*64
1506060210.03,60399,13.44,73548.8,-0.39,-1.75,-1.71,0,*6B
1506060211.24,60400,13.44,73548.0,-0.39,-1.75,-1.75,0,*68
1506060212.46,60401,13.44,73548.8,-0.39,-1.75,-1.75,0,*69
1506060213.67,60402,13.44,73550.8,-0.39,-1.75,-1.75,0,*6A
1506060214.89,60403,13.44,73552.0,-0.39,-1.75,-1.75,0,*6B
1506060216.12,60404,13.44,73550.8,-0.43,-1.79,-1.87,0,*60
1506060217.34,60405,13.44,73548.5,-0.43,-1.79,-1.79,0,*60
1506060218.55,60406,13.44,73550.3,-0.39,-1.75,-1.75,0,*6E
1506060219.76,60407,13.44,73550.0,-0.43,-1.79,-1.79,0,*62
1506060220.98,60408,13.44,73546.3,-0.39,-1.75,-1.75,0,*60
1506060222.19,60409,13.5,73548.3,-0.39,-1.75,-1.75,0,*61
1506060223.41,60410,13.44,73548.5,-0.39,-1.71,-1.75,0,*6D
1506060224.63,60411,13.44,73544.8,-0.39,-1.75,-1.75,0,*68
1506060225.85,60412,13.44,73544.5,-0.39,-1.71,-1.75,0,*6F
1506060227.06,60413,13.44,73546.0,-0.43,-1.75,-1.79,0,*6B
1506060228.28,60414,13.5,73550.0,-0.39,-1.71,-1.63,0,*6E
1506060229.49,60415,13.44,73550.5,-0.43,-1.75,-1.79,0,*6D
1506060230.71,60416,13.44,73550.8,-0.43,-1.75,-1.79,0,*6E
1506060231.92,60417,13.5,73554.5,-0.43,-1.79,-1.79,0,*63
1506060233.13,60418,13.44,73550.3,-0.43,-1.79,-1.79,0,*6C
1506060234.37,60419,13.44,73548.8,-0.43,-1.79,-1.87,0,*6C
1506060235.63,60420,13.44,73550.5,-0.43,-1.87,-1.87,0,*67
1506060236.9,60421,13.44,73548.5,-0.43,-1.87,-1.87,0,*66
1506060238.14,60422,13.44,73550.8,-0.43,-1.87,-1.79,0,*64
1506060239.41,60423,13.44,73546.0,-0.47,-1.83,-1.83,0,*60
1506060240.65,60424,13.44,73546.0,-0.45,-1.83,-1.83,0,*65
1506060241.89,60425,13.44,73546.5,-0.45,-1.83,-1.83,0,*64
1506060243.1,60426,13.44,73540.3,-0.45,-1.79,-1.83,0,*62
1506060244.34,60427,13.44,73536.8,-0.47,-1.79,-1.83,0,*61
1506060245.53,60428,13.44,73540.8,-0.45,-1.79,-1.79,0,*69
1506060246.75,60429,13.44,73544.3,-0.47,-1.71,-1.79,0,*62
1506060247.97,60430,13.44,73548.0,-0.47,-1.67,-1.71,0,*65
1506060249.17,60431,13.5,73548.0,-0.45,-1.71,-1.71,0,*61
1506060250.37,60432,13.44,73548.0,-0.45,-1.71,-1.71,0,*62
1506060251.56,60433,13.44,73548.0,-0.45,-1.71,-1.71,0,*63
1506060252.79,60434,13.44,73550.3,-0.47,-1.71,-1.71,0,*66
1506060254.01,60435,13.44,73548.3,-0.47,-1.71,-1.71,0,*67
1506060255.23,60436,13.44,73548.5,-0.47,-1.71,-1.71,0,*64
1506060256.42,60437,13.5,73554.0,-0.45,-1.79,-1.71,0,*6F
1506060257.69,60438,13.5,73550.8,-0.47,-1.83,-1.83,0,*6A
1506060258.88,60439,13.44,73548.3,-0.45,-1.79,-1.71,0,*61
1506060260.1,60440,13.44,73550.3,-0.47,-1.79,-1.71,0,*6D
1506060261.32,60441,13.5,73552.3,-0.47,-1.71,-1.71,0,*64
1506060262.55,60442,13.44,73548.8,-0.47,-1.71,-1.71,0,*67
1506060263.74,60443,13.44,73544.5,-0.45,-1.79,-1.71,0,*6C
1506060264.96,60444,13.5,73550.8,-0.47,-1.71,-1.71,0,*61
1506060266.16,60445,13.44,73546.5,-0.45,-1.71,-1.71,0,*62
1506060267.37,60446,13.44,73546.5,-0.47,-1.79,-1.79,0,*63
1506060268.59,60447,13.44,73544.5,-0.47,-1.79,-1.79,0,*62
1506060269.81,60448,13.5,73548.5,-0.47,-1.71,-1.79,0,*65
1506060271.0,60449,13.44,73548.3,-0.45,-1.71,-1.71,0,*6E
1506060272.2,60450,13.5,73548.3,-0.45,-1.71,-1.79,0,*6E
1506060273.42,60451,13.44,73548.3,-0.47,-1.71,-1.79,0,*6D
1506060274.63,60452,13.5,73550.8,-0.47,-1.79,-1.79,0,*66
1506060275.84,60453,13.44,73546.5,-0.47,-1.79,-1.79,0,*67
1506060277.08,60454,13.5,73550.5,-0.47,-1.79,-1.83,0,*65
1506060278.35,60455,13.44,73550.3,-0.47,-1.83,-1.83,0,*61
1506060279.59,60456,13.5,73548.5,-0.49,-1.87,-1.83,0,*68
1506060280.84,60457,13.44,73548.0,-0.49,-1.83,-1.83,0,*6D
1506060282.11,60458,13.5,73548.0,-0.51,-1.83,-1.83,0,*6B
1506060283.35,60459,13.5,73548.0,-0.47,-1.79,-1.83,0,*68
1506060284.58,60460,13.44,73546.5,-0.47,-1.79,-1.83,0,*62
1506060285.8,60461,13.5,73550.3,-0.47,-1.79,-1.79,0,*66
1506060287.01,60462,13.5,73550.5,-0.47,-1.79,-1.79,0,*65
1506060288.25,60463,13.44,73544.3,-0.49,-1.83,-1.87,0,*6E
1506060289.5,60464,13.5,73548.0,-0.49,-1.83,-1.87,0,*69
1506060290.72,60465,13.5,73548.8,-0.49,-1.75,-1.87,0,*61
1506060291.96,60466,13.5,73550.3,-0.49,-1.87,-1.83,0,*6B
1506060293.21,60467,13.44,73546.8,-0.49,-1.83,-1.87,0,*6A
1506060294.43,60468,13.44,73546.8,-0.49,-1.75,-1.87,0,*6C
1506060295.67,60469,13.5,73552.8,-0.49,-1.83,-1.83,0,*60
1506060296.92,60470,13.5,73550.3,-0.49,-1.83,-1.83,0,*68
1506060298.13,60471,13.5,73552.3,-0.49,-1.75,-1.83,0,*60
1506060299.38,60472,13.44,73548.5,-0.49,-1.83,-1.87,0,*6E
1506060300.65,60473,13.44,73546.8,-0.51,-1.87,-1.87,0,*62
1506060301.86,60474,13.5,73548.0,-0.49,-1.75,-1.83,0,*65
1506060303.11,60475,13.5,73548.8,-0.49,-1.83,-1.83,0,*6D
1506060304.38,60476,13.5,73550.0,-0.51,-1.83,-1.87,0,*63
1506060305.64,60477,13.5,73548.8,-0.51,-1.95,-1.87,0,*65
1506060306.91,60478,13.44,73544.5,-0.51,-1.87,-1.87,0,*69
1506060308.16,60479,13.5,73546.8,-0.49,-1.87,-1.87,0,*61
1506060309.4,60480,13.5,73548.8,-0.49,-1.87,-1.95,0,*64
1506060310.63,60481,13.5,73548.5,-0.49,-1.95,-1.95,0,*66
1506060311.89,60482,13.5,73548.5,-0.51,-1.95,-1.95,0,*6C
1506060313.15,60483,13.44,73546.5,-0.51,-1.95,-1.95,0,*6D
1506060314.4,60484,13.5,73550.5,-0.49,-1.95,-1.99,0,*6F
1506060315.66,60485,13.5,73548.5,-0.51,-1.95,-1.99,0,*67
1506060316.91,60486,13.5,73550.0,-0.53,-1.99,-2.03,0,*6A
1506060318.15,60487,13.44,73546.5,-0.53,-2.03,-2.11,0,*68
1506060319.39,60488,13.5,73548.0,-0.53,-2.03,-2.03,0,*64
1506060320.6,60489,13.5,73548.5,-0.55,-2.19,-2.19,0,*63
1506060321.78,60490,13.5,73548.8,-0.53,-2.19,-2.27,0,*60
1506060322.99,60491,13.5,73548.3,-0.55,-2.27,-2.27,0,*6A
1506060324.2,60492,13.44,73544.8,-0.55,-2.27,-2.31,0,*6E
1506060325.42,60493,13.5,73546.0,-0.55,-2.27,-2.31,0,*6F
1506060326.63,60494,13.5,73544.5,-0.55,-2.31,-2.39,0,*67
1506060327.84,60495,13.44,73544.5,-0.55,-2.39,-2.39,0,*6E
1506060329.05,60496,13.5,73546.0,-0.55,-2.43,-2.43,0,*6D
1506060330.29,60497,13.5,73546.3,-0.59,-2.43,-2.47,0,*64
1506060331.57,60498,13.5,73550.3,-0.59,-2.47,-2.47,0,*6F
1506060332.84,60499,13.5,73546.5,-0.59,-2.47,-2.47,0,*6E
1506060334.11,60500,13.5,73550.3,-0.59,-2.55,-2.55,0,*6F
1506060335.35,60501,13.5,73546.8,-0.61,-2.51,-2.59,0,*6D
1506060336.62,60502,13.5,73544.3,-0.63,-2.59,-2.63,0,*6D
1506060337.88,60503,13.5,73550.8,-0.63,-2.59,-2.59,0,*65
1506060339.15,60504,13.5,73546.3,-0.63,-2.63,-2.63,0,*62
1506060340.43,60505,13.44,73546.5,-0.63,-2.63,-2.63,0,*63
1506060341.69,60506,13.44,73544.0,-0.63,-2.51,-2.59,0,*68
1506060342.96,60507,13.44,73544.5,-0.63,-2.51,-2.51,0,*61
1506060344.23,60508,13.5,73548.3,-0.67,-2.67,-2.67,0,*6A
1506060345.5,60509,13.5,73546.5,-0.67,-2.51,-2.55,0,*6F
1506060346.74,60510,13.5,73546.0,-0.69,-2.47,-2.47,0,*6D
1506060347.93,60511,13.5,73548.3,-0.69,-2.43,-2.43,0,*6C
1506060349.11,60512,13.5,73548.8,-0.69,-2.43,-2.43,0,*6F
1506060350.3,60513,13.5,73544.3,-0.69,-2.43,-2.39,0,*63
1506060351.48,60514,13.5,73546.5,-0.69,-2.43,-2.43,0,*69
1506060352.67,60515,13.44,73540.3,-0.69,-2.43,-2.35,0,*69
1506060353.85,60516,13.5,73546.5,-0.69,-2.35,-2.35,0,*6B
1506060355.04,60517,13.44,73544.8,-0.69,-2.35,-2.35,0,*6A
1506060356.23,60518,13.5,73544.5,-0.69,-2.35,-2.31,0,*61
1506060357.45,60519,13.5,73544.8,-0.71,-2.31,-2.35,0,*69
1506060358.66,60520,13.5,73546.5,-0.71,-2.35,-2.35,0,*67
1506060359.87,60521,13.5,73544.5,-0.71,-2.35,-2.31,0,*62
1506060361.09,60522,13.5,73548.5,-0.71,-2.35,-2.31,0,*61
1506060362.3,60523,13.5,73548.0,-0.71,-2.35,-2.35,0,*64
1506060363.54,60524,13.5,73550.0,-0.71,-2.43,-2.47,0,*67
1506060364.77,60525,13.5,73544.0,-0.73,-2.51,-2.59,0,*68
1506060365.95,60526,13.5,73550.0,-0.73,-2.39,-2.43,0,*6E
1506060367.14,60527,13.5,73550.0,-0.73,-2.39,-2.39,0,*62
1506060368.35,60528,13.44,73546.5,-0.71,-2.35,-2.35,0,*6F
1506060369.53,60529,13.5,73544.3,-0.73,-2.35,-2.35,0,*6C
1506060370.75,60530,13.5,73546.0,-0.71,-2.31,-2.35,0,*62
1506060371.93,60531,13.5,73544.3,-0.73,-2.35,-2.35,0,*65
1506060373.12,60532,13.5,73544.3,-0.73,-2.23,-2.35,0,*61
1506060374.31,60533,13.5,73546.8,-0.73,-2.31,-2.35,0,*63
1506060375.5,60534,13.44,73540.8,-0.73,-2.31,-2.35,0,*64
1506060376.68,60535,13.5,73546.3,-0.73,-2.23,-2.31,0,*62
1506060377.87,60536,13.5,73544.5,-0.73,-2.23,-2.31,0,*61
1506060379.06,60537,13.5,73544.3,-0.73,-2.23,-2.23,0,*63
1506060380.25,60538,13.5,73544.5,-0.73,-2.23,-2.23,0,*6C
1506060381.43,60539,13.5,73544.3,-0.73,-2.23,-2.23,0,*6D
1506060382.62,60540,13.5,73546.5,-0.73,-2.23,-2.23,0,*63
1506060383.81,60541,13.5,73544.8,-0.73,-2.23,-2.23,0,*62
1506060384.99,60542,13.5,73548.8,-0.73,-2.23,-2.23,0,*61
1506060386.18,60543,13.5,73546.0,-0.73,-2.23,-2.23,0,*60
1506060387.37,60544,13.5,73546.0,-0.73,-2.23,-2.23,0,*67
1506060388.59,60545,13.5,73546.8,-0.75,-2.23,-2.23,0,*60
1506060389.8,60546,13.5,73546.0,-0.75,-2.23,-2.23,0,*63
1506060391.02,60547,13.5,73546.0,-0.75,-2.23,-2.31,0,*61
1506060392.24,60548,13.5,73546.0,-0.75,-2.23,-2.31,0,*6E
1506060393.45,60549,13.5,73544.0,-0.75,-2.23,-2.23,0,*6C
1506060394.67,60550,13.5,73546.3,-0.75,-2.31,-2.31,0,*64
1506060395.89,60551,13.5,73546.3,-0.75,-2.39,-2.39,0,*65
1506060397.1,60552,13.5,73540.8,-0.75,-2.23,-2.35,0,*61
1506060398.32,60553,13.5,73546.3,-0.75,-2.23,-2.23,0,*67
1506060399.53,60554,13.5,73544.8,-0.75,-2.23,-2.31,0,*63
1506060400.75,60555,13.5,73544.8,-0.75,-2.23,-2.23,0,*61
1506060401.97,60556,13.5,73544.3,-0.75,-2.23,-2.31,0,*61
1506060403.15,60557,13.5,73544.3,-0.77,-2.23,-2.27,0,*65
1506060404.34,60558,13.5,73544.3,-0.77,-2.27,-2.27,0,*6E
1506060405.55,60559,13.5,73540.3,-0.75,-2.23,-2.23,0,*6D
1506060406.77,60560,13.5,73542.3,-0.75,-2.23,-2.31,0,*64
1506060407.96,60561,13.5,73544.3,-0.77,-2.27,-2.23,0,*60
1506060409.18,60562,13.5,73542.0,-0.75,-2.23,-2.23,0,*65
1506060410.36,60563,13.5,73546.5,-0.77,-2.27,-2.27,0,*66
1506060411.54,60564,13.5,73544.0,-0.77,-2.27,-2.27,0,*61
1506060412.76,60565,13.5,73540.8,-0.75,-2.23,-2.23,0,*62
1506060413.94,60566,13.5,73542.0,-0.77,-2.27,-2.27,0,*63
1506060415.16,60567,13.5,73542.8,-0.75,-2.19,-2.23,0,*69
1506060416.35,60568,13.5,73542.3,-0.77,-2.15,-2.23,0,*68
1506060417.56,60569,13.5,73544.8,-0.75,-2.19,-2.19,0,*6E
1506060418.75,60570,13.5,73540.3,-0.77,-2.23,-2.19,0,*6D
1506060419.94,60571,13.5,73544.8,-0.77,-2.23,-2.19,0,*6C
1506060421.13,60572,13.5,73540.8,-0.77,-2.23,-2.15,0,*63
1506060422.31,60573,13.5,73542.5,-0.77,-2.15,-2.15,0,*67
1506060423.5,60574,13.5,73546.0,-0.77,-2.23,-2.23,0,*60
1506060424.77,60575,13.5,73546.3,-0.75,-2.07,-2.11,0,*64
1506060426.02,60576,13.5,73544.0,-0.75,-2.07,-2.23,0,*66
1506060427.2,60577,13.5,73544.0,-0.77,-2.23,-2.15,0,*66
1506060428.44,60578,13.5,73544.8,-0.75,-2.19,-2.11,0,*66
1506060429.69,60579,13.5,73544.8,-0.75,-2.11,-2.19,0,*67
1506060430.88,60580,13.5,73546.8,-0.77,-2.15,-2.23,0,*6E
1506060432.09,60581,13.5,73546.8,-0.75,-2.19,-2.19,0,*68
1506060433.28,60582,13.5,73542.8,-0.77,-2.15,-2.23,0,*6C
1506060434.5,60583,13.5,73544.8,-0.75,-2.19,-2.19,0,*6A
1506060435.71,60584,13.5,73542.5,-0.75,-2.19,-2.19,0,*6D
1506060436.9,60585,13.5,73544.3,-0.77,-2.23,-2.27,0,*6A
1506060438.08,60586,13.5,73542.3,-0.77,-2.23,-2.27,0,*69
1506060439.26,60587,13.44,73538.0,-0.77,-2.23,-2.27,0,*68
1506060440.48,60588,13.5,73544.0,-0.75,-2.19,-2.23,0,*68
1506060441.66,60589,13.5,73546.0,-0.77,-2.23,-2.27,0,*66
1506060442.85,60590,13.5,73544.3,-0.77,-2.23,-2.27,0,*6E
1506060444.03,60591,13.5,73544.8,-0.77,-2.23,-2.27,0,*6F
1506060445.22,60592,13.5,73544.3,-0.77,-2.23,-2.35,0,*6F
1506060446.4,60593,13.5,73546.5,-0.77,-2.23,-2.27,0,*6D
1506060447.59,60594,13.5,73542.5,-0.77,-2.23,-2.23,0,*6E
1506060448.8,60595,13.5,73544.0,-0.79,-2.27,-2.27,0,*61
1506060449.99,60596,13.5,73544.0,-0.77,-2.23,-2.27,0,*68
1506060451.17,60597,13.5,73544.5,-0.77,-2.23,-2.27,0,*69
1506060452.36,60598,13.5,73546.3,-0.77,-2.23,-2.23,0,*62
1506060453.58,60599,13.5,73544.5,-0.79,-2.15,-2.23,0,*68
1506060454.77,60600,13.5,73542.8,-0.77,-2.15,-2.15,0,*60
1506060455.98,60601,13.5,73546.3,-0.77,-2.15,-2.11,0,*65
1506060457.17,60602,13.5,73544.5,-0.77,-2.15,-2.15,0,*62
1506060458.36,60603,13.5,73548.8,-0.77,-2.15,-2.15,0,*63
1506060459.54,60604,13.5,73548.0,-0.77,-2.15,-2.15,0,*64
1506060460.76,60605,13.5,73546.8,-0.77,-2.11,-2.15,0,*61
1506060461.95,60606,13.5,73544.3,-0.77,-2.23,-2.15,0,*63
1506060463.14,60607,13.5,73548.3,-0.77,-2.15,-2.15,0,*67
1506060464.33,60608,13.5,73546.0,-0.77,-2.15,-2.15,0,*68
1506060465.51,60609,13.5,73546.5,-0.77,-2.15,-2.15,0,*69
1506060466.7,60610,13.5,73548.5,-0.77,-2.23,-2.15,0,*64
1506060467.92,60611,13.5,73546.5,-0.79,-2.15,-2.15,0,*6E
1506060469.13,60612,13.5,73544.8,-0.79,-2.23,-2.15,0,*68
1506060470.35,60613,13.5,73548.8,-0.79,-2.23,-2.15,0,*69
1506060471.54,60614,13.5,73544.0,-0.81,-2.15,-2.23,0,*69
1506060472.73,60615,13.5,73548.5,-0.77,-2.23,-2.15,0,*61
1506060473.94,60616,13.5,73546.5,-0.79,-2.23,-2.23,0,*69
1506060475.13,60617,13.5,73550.8,-0.77,-2.15,-2.15,0,*66
1506060476.32,60618,13.5,73548.0,-0.77,-2.15,-2.23,0,*6C
1506060477.51,60619,13.5,73550.5,-0.77,-2.23,-2.15,0,*6D
1506060478.7,60620,13.5,73548.3,-0.77,-2.15,-2.23,0,*67
1506060479.89,60621,13.5,73548.8,-0.77,-2.15,-2.23,0,*66
1506060481.11,60622,13.5,73550.5,-0.79,-2.23,-2.15,0,*6B
1506060482.32,60623,13.5,73548.8,-0.79,-2.15,-2.15,0,*6F
1506060483.53,60624,13.5,73548.0,-0.79,-2.15,-2.27,0,*69
1506060484.75,60625,13.5,73550.3,-0.79,-2.23,-2.15,0,*6C
1506060485.96,60626,13.5,73546.8,-0.79,-2.15,-2.23,0,*6F
1506060487.18,60627,13.5,73550.5,-0.79,-2.23,-2.23,0,*6B
1506060488.4,60628,13.5,73546.8,-0.79,-2.23,-2.23,0,*64
1506060489.61,60629,13.5,73546.3,-0.79,-2.23,-2.23,0,*65
1506060490.83,60630,13.5,73548.0,-0.79,-2.15,-2.15,0,*6D
1506060492.04,60631,13.5,73550.3,-0.79,-2.15,-2.15,0,*6C
1506060493.26,60632,13.5,73548.8,-0.79,-2.15,-2.23,0,*6A
1506060494.48,60633,13.5,73550.0,-0.79,-2.23,-2.15,0,*6B
1506060495.69,60634,13.5,73548.8,-0.79,-2.23,-2.23,0,*69
1506060496.91,60635,13.5,73548.8,-0.79,-2.15,-2.23,0,*6D
1506060498.12,60636,13.5,73548.8,-0.79,-2.15,-2.15,0,*6B
1506060499.34,60637,13.5,73552.3,-0.79,-2.23,-2.23,0,*6A
1506060500.56,60638,13.5,73550.5,-0.79,-2.23,-2.23,0,*65
1506060501.78,60639,13.5,73550.5,-0.79,-2.15,-2.23,0,*61
1506060502.96,60640,13.5,73546.8,-0.81,-2.19,-2.27,0,*60
1506060504.18,60641,13.5,73550.5,-0.79,-2.23,-2.23,0,*6B
1506060505.4,60642,13.5,73548.0,-0.79,-2.15,-2.23,0,*6D
1506060506.59,60643,13.5,73552.3,-0.81,-2.23,-2.23,0,*6E
1506060507.78,60644,13.5,73550.0,-0.81,-2.15,-2.23,0,*6C
1506060508.97,60645,13.5,73550.0,-0.81,-2.27,-2.27,0,*68